KD8FRE Weather Reports


time (UTC)temp
C
wind
direction
speed
KPH
gust
KPH
rain 1hr
cm
rain 24hr
cm
rain mn
cm
humidity
%
barometer
mb
20260502170237 6 320 8.0 14.5 0.00 0.00 0.00 44 1018.2
20260502164224 6 300 4.8 4.8 0.00 0.00 0.00 44 1018.4
20260502163719 6 268 4.8 9.7 0.00 0.00 0.00 44 1018.3
20260502163211 6 301 6.4 14.5 0.00 0.00 0.00 45 1018.2
20260502162708 5 287 11.3 16.1 0.00 0.00 0.00 44 1018.3
20260502162204 6 278 9.7 12.9 0.00 0.00 0.00 46 1018.4
20260502161702 6 302 6.4 12.9 0.00 0.00 0.00 44 1018.4
20260502161158 6 284 8.0 9.7 0.00 0.00 0.00 45 1018.4
20260502160656 6 332 3.2 14.5 0.00 0.00 0.00 46 1018.5
20260502160155 6 355 8.0 16.1 0.00 0.00 0.00 44 1018.5
20260502152109 5 4 6.4 9.7 0.00 0.00 0.00 49 1018.3
20260502151606 5 286 11.3 12.9 0.00 0.00 0.00 49 1018.4
20260502151103 5 352 8.0 17.7 0.00 0.00 0.00 49 1018.3
20260502150601 5 334 8.0 12.9 0.00 0.00 0.00 48 1018.3
20260502130445 3 305 6.4 6.4 0.00 0.00 0.00 64 1018.6
20260502123428 2 329 3.2 14.5 0.00 0.00 0.00 68 1018.3
20260502122925 2 332 6.4 6.4 0.00 0.00 0.00 70 1018.4
20260502122421 2 333 6.4 6.4 0.00 0.00 0.00 70 1018.4
20260502121920 2 343 9.7 12.9 0.00 0.00 0.00 69 1018.3
20260502121416 2 306 6.4 11.3 0.00 0.00 0.00 71 1018.3
20260502120914 2 299 4.8 12.9 0.00 0.00 0.00 71 1018.2
20260502120410 2 343 6.4 12.9 0.00 0.00 0.00 71 1018.3
20260502115907 2 7 3.2 9.7 0.00 0.00 0.00 72 1018.1
20260502115404 2 334 3.2 9.7 0.00 0.00 0.00 72 1018.4
20260502114900 2 343 3.2 9.7 0.00 0.00 0.00 72 1018.4
20260502114357 2 335 4.8 9.7 0.00 0.00 0.00 72 1018.2
20260502113854 2 359 6.4 9.7 0.00 0.00 0.00 72 1018.1
20260502113352 1 345 3.2 6.4 0.00 0.00 0.00 73 1018.1
20260502112850 1 358 0.0 4.8 0.00 0.00 0.00 74 1018.1
20260502112347 1 340 3.2 4.8 0.00 0.00 0.00 74 1018.1
20260502111845 1 350 3.2 6.4 0.00 0.00 0.00 74 1018.0
20260502111342 1 328 4.8 4.8 0.00 0.00 0.00 76 1017.8
20260502110840 1 347 3.2 6.4 0.00 0.00 0.00 74 1017.9
20260502110337 1 324 1.6 3.2 0.00 0.00 0.00 75 1018.1
20260502105834 1 346 0.0 1.6 0.00 0.00 0.00 75 1017.9
20260502105331 1 332 1.6 3.2 0.00 0.00 0.00 74 1017.9
20260502104824 1 345 1.6 3.2 0.00 0.00 0.00 75 1017.9
20260502104321 1 312 3.2 4.8 0.00 0.00 0.00 74 1017.9
20260502103818 1 336 4.8 4.8 0.00 0.00 0.00 73 1017.9
20260502103315 1 327 3.2 6.4 0.00 0.00 0.00 74 1017.9
20260502102813 1 348 3.2 6.4 0.00 0.00 0.00 73 1017.7
20260502102309 1 341 4.8 6.4 0.00 0.00 0.00 74 1017.8
20260502101807 1 324 4.8 6.4 0.00 0.00 0.00 75 1017.6
20260502101305 1 317 3.2 3.2 0.00 0.00 0.00 75 1017.7
20260502100803 1 339 3.2 4.8 0.00 0.00 0.00 76 1017.7
20260502100302 1 326 3.2 4.8 0.00 0.00 0.00 76 1017.6
20260502091235 2 323 1.6 3.2 0.00 0.00 0.00 71 1017.3
20260502090732 2 332 1.6 3.2 0.00 0.00 0.00 71 1017.3
20260502090229 2 316 3.2 3.2 0.00 0.00 0.00 70 1017.3
20260502071130 3 333 3.2 3.2 0.00 0.00 0.00 59 1016.8
20260502070628 3 8 0.0 1.6 0.00 0.00 0.00 59 1016.9
20260502070126 3 29 3.2 6.4 0.00 0.00 0.00 60 1016.9
20260502065624 3 353 1.6 4.8 0.00 0.00 0.00 59 1016.9
20260502065121 3 345 3.2 3.2 0.00 0.00 0.00 62 1017.1
20260502064620 3 13 0.0 0.0 0.00 0.00 0.00 62 1017.1
20260502064117 3 30 0.0 1.6 0.00 0.00 0.00 62 1017.0
20260502063615 3 22 0.0 0.0 0.00 0.00 0.00 61 1017.2
20260502063112 3 13 1.6 1.6 0.00 0.00 0.00 61 1017.1
20260502062609 4 18 0.0 3.2 0.00 0.00 0.00 61 1017.2
20260502062107 4 5 4.8 6.4 0.00 0.00 0.00 60 1017.3
20260502061605 4 339 3.2 3.2 0.00 0.00 0.00 58 1017.2
20260502061102 4 1 1.6 11.3 0.00 0.00 0.00 59 1017.2
20260502060602 4 332 3.2 4.8 0.00 0.00 0.00 60 1017.5
20260502060059 4 334 3.2 4.8 0.00 0.00 0.00 59 1017.4
20260502055556 4 353 1.6 3.2 0.00 0.00 0.00 60 1017.4
20260502055055 4 1 1.6 1.6 0.00 0.00 0.00 60 1017.4
20260502054553 4 14 1.6 3.2 0.00 0.00 0.00 58 1017.3
20260502054050 4 356 0.0 3.2 0.00 0.00 0.00 59 1017.3
20260502053547 4 356 0.0 1.6 0.00 0.00 0.00 60 1017.4
20260502053045 4 15 1.6 3.2 0.00 0.00 0.00 59 1017.4
20260502052543 4 314 3.2 3.2 0.00 0.00 0.00 60 1017.4
20260502052041 4 18 0.0 3.2 0.00 0.00 0.00 60 1017.5
20260502051539 4 353 3.2 4.8 0.00 0.00 0.00 59 1017.6
20260502051036 4 4 1.6 4.8 0.00 0.00 0.00 59 1017.4
20260502050532 4 329 6.4 6.4 0.00 0.00 0.00 60 1017.2
20260502050029 4 6 3.2 3.2 0.00 0.00 0.00 60 1017.2
20260502045525 4 333 6.4 12.9 0.00 0.00 0.00 60 1017.3
20260502045023 4 341 8.0 9.7 0.00 0.00 0.00 61 1017.3
20260502044519 4 357 1.6 6.4 0.00 0.00 0.00 61 1017.0
20260502044016 5 352 4.8 12.9 0.00 0.00 0.00 61 1017.2
20260502043514 5 318 8.0 9.7 0.00 0.00 0.00 62 1017.1
20260502043010 5 335 6.4 9.7 0.00 0.00 0.00 62 1016.9
20260502042505 5 323 4.8 4.8 0.00 0.00 0.00 63 1017.0
20260502042003 5 7 3.2 3.2 0.00 0.00 0.00 62 1017.0
20260502041500 5 354 3.2 6.4 0.00 0.00 0.00 62 1016.7
20260502040956 5 352 3.2 4.8 0.00 0.00 0.00 62 1016.8
20260502040453 5 355 1.6 3.2 0.00 0.00 0.00 63 1016.8
20260502035950 5 338 1.6 4.8 0.00 0.00 0.00 61 1016.9
20260502035446 5 8 4.8 6.4 0.00 0.00 0.00 60 1016.7
20260502034944 5 19 8.0 11.3 0.00 0.00 0.00 62 1016.6
20260502034442 5 11 3.2 3.2 0.00 0.00 0.00 65 1016.7
20260502033940 5 1 0.0 6.4 0.00 0.00 0.00 63 1016.9
20260502033437 5 336 4.8 6.4 0.00 0.00 0.00 63 1016.8
20260502032934 5 16 8.0 9.7 0.00 0.00 0.00 64 1016.8
20260502032431 5 356 4.8 6.4 0.00 0.00 0.00 64 1016.8
20260502031928 5 349 4.8 11.3 0.00 0.00 0.00 64 1016.8
20260502031426 5 21 6.4 12.9 0.00 0.00 0.00 64 1017.0
20260502030924 5 317 9.7 12.9 0.00 0.00 0.00 63 1016.7
20260502030422 5 4 6.4 12.9 0.00 0.00 0.00 64 1016.9
20260502025920 5 321 14.5 16.1 0.00 0.00 0.00 62 1016.8
20260502025416 5 308 9.7 14.5 0.00 0.00 0.00 62 1016.7
20260502024914 5 329 8.0 14.5 0.00 0.00 0.00 63 1016.6
20260502024412 5 311 6.4 11.3 0.00 0.00 0.00 62 1016.8
20260502023910 5 293 4.8 6.4 0.00 0.00 0.00 63 1016.5
20260502023407 5 323 4.8 6.4 0.00 0.00 0.00 64 1016.3
20260502022905 5 302 6.4 9.7 0.00 0.00 0.00 63 1016.6
20260502022401 5 280 4.8 4.8 0.00 0.00 0.00 64 1016.5
20260502021858 5 306 3.2 4.8 0.00 0.00 0.00 64 1016.6
20260502021355 5 307 3.2 3.2 0.00 0.00 0.00 65 1016.4
20260502020852 5 321 4.8 4.8 0.00 0.00 0.00 64 1016.5
20260502020350 5 298 3.2 6.4 0.00 0.00 0.00 63 1016.3
20260502015847 5 324 4.8 6.4 0.00 0.00 0.00 63 1016.4
20260502015344 5 298 4.8 4.8 0.00 0.00 0.00 64 1016.5
20260502014841 5 322 3.2 6.4 0.00 0.00 0.00 63 1016.2
20260502014338 5 294 6.4 6.4 0.00 0.00 0.00 63 1016.3
20260502013834 5 311 6.4 11.3 0.00 0.00 0.00 62 1016.3
20260502013330 5 350 3.2 6.4 0.00 0.00 0.00 64 1016.3
20260502012826 6 359 4.8 11.3 0.00 0.00 0.00 63 1016.3
20260502012325 6 290 8.0 11.3 0.00 0.00 0.00 62 1016.2
20260502011821 6 339 9.7 14.5 0.00 0.00 0.00 62 1016.1
20260502011318 6 294 6.4 11.3 0.00 0.00 0.00 62 1016.1
20260502010815 6 293 6.4 11.3 0.00 0.00 0.00 63 1015.9
20260502010311 6 358 3.2 4.8 0.00 0.00 0.00 62 1016.0
20260502005808 6 318 4.8 9.7 0.00 0.00 0.00 61 1015.9
20260502005306 6 319 6.4 11.3 0.00 0.00 0.00 60 1015.9
20260502004803 6 298 9.7 12.9 0.00 0.00 0.00 61 1015.9
20260502004259 6 301 6.4 6.4 0.00 0.00 0.00 61 1015.5
20260502003757 6 299 8.0 9.7 0.00 0.00 0.00 60 1015.8
20260502003254 6 290 4.8 4.8 0.00 0.00 0.00 61 1015.8
20260502002749 6 326 3.2 4.8 0.00 0.00 0.00 61 1015.8
20260502002247 6 321 4.8 4.8 0.00 0.00 0.00 60 1015.7
20260502001744 6 345 1.6 6.4 0.00 0.00 0.00 60 1015.8
20260502001243 6 295 3.2 4.8 0.00 0.00 0.00 61 1015.5
20260502000740 6 305 8.0 9.7 0.00 0.00 0.00 60 1015.8
20260502000240 6 324 8.0 9.7 0.00 0.00 0.00 59 1015.4
20260501235733 6 310 4.8 11.3 0.00 0.00 0.00 60 1015.4
20260501235229 6 311 6.4 11.3 0.00 0.00 0.00 59 1015.3
20260501234725 6 328 9.7 12.9 0.00 0.00 0.00 60 1015.8
20260501234222 6 319 8.0 9.7 0.00 0.00 0.00 60 1015.3
20260501233720 6 342 8.0 11.3 0.00 0.00 0.00 61 1015.3
20260501233218 6 330 4.8 9.7 0.00 0.00 0.00 60 1015.3
20260501232713 6 338 8.0 9.7 0.00 0.00 0.00 61 1015.7
20260501232211 6 293 8.0 14.5 0.00 0.00 0.00 60 1015.3
20260501231708 6 295 6.4 9.7 0.00 0.00 0.00 61 1015.3
20260501231206 6 314 6.4 11.3 0.00 0.00 0.00 60 1015.2
20260501230704 6 313 4.8 6.4 0.00 0.00 0.00 62 1015.3
20260501230202 6 319 3.2 6.4 0.00 0.00 0.00 61 1015.3
20260501225659 6 309 6.4 11.3 0.00 0.00 0.00 60 1015.5
20260501225156 6 295 9.7 12.9 0.00 0.00 0.00 61 1015.2
20260501224652 6 334 6.4 11.3 0.00 0.00 0.00 61 1015.4
20260501224150 6 266 8.0 12.9 0.00 0.00 0.00 60 1015.3
20260501223646 7 288 6.4 11.3 0.00 0.00 0.00 61 1015.5
20260501223143 7 297 11.3 12.9 0.00 0.00 0.00 61 1015.3
20260501222638 6 308 6.4 6.4 0.00 0.00 0.00 62 1015.4
20260501222136 6 314 6.4 11.3 0.00 0.00 0.00 62 1015.3
20260501221633 6 335 4.8 9.7 0.00 0.00 0.00 61 1015.2
20260501221130 6 311 6.4 12.9 0.00 0.00 0.00 60 1015.2
20260501220628 6 351 6.4 9.7 0.00 0.00 0.00 62 1015.3
20260501220125 6 329 6.4 11.3 0.00 0.00 0.00 61 1015.2
20260501215622 6 310 3.2 6.4 0.00 0.00 0.00 62 1015.4
20260501215117 7 324 6.4 16.1 0.00 0.00 0.00 61 1015.2
20260501214612 7 328 4.8 14.5 0.00 0.00 0.00 59 1015.0
20260501214108 7 294 4.8 11.3 0.00 0.00 0.00 57 1015.0
20260501213605 7 328 8.0 16.1 0.00 0.00 0.00 56 1015.0
20260501213101 7 300 14.5 16.1 0.00 0.00 0.00 56 1014.9
20260501212557 7 270 8.0 12.9 0.00 0.00 0.00 55 1014.9
20260501212054 7 335 6.4 9.7 0.00 0.00 0.00 57 1014.7
20260501211551 7 330 4.8 9.7 0.00 0.00 0.00 56 1014.8
20260501211049 7 307 6.4 14.5 0.00 0.00 0.00 56 1014.7
20260501210545 7 291 12.9 17.7 0.00 0.00 0.00 54 1014.6
20260501210042 7 318 6.4 11.3 0.00 0.00 0.00 54 1014.5
20260501205538 7 293 6.4 9.7 0.00 0.00 0.00 57 1014.5
20260501205036 8 314 9.7 14.5 0.00 0.00 0.00 52 1014.5
20260501204532 8 27 3.2 4.8 0.00 0.00 0.00 55 1014.4
20260501204028 7 336 4.8 11.3 0.00 0.00 0.00 55 1014.7
20260501203525 7 0 3.2 12.9 0.00 0.00 0.00 55 1014.5
20260501203023 8 332 8.0 11.3 0.00 0.00 0.00 55 1014.4
20260501202520 7 310 11.3 16.1 0.00 0.00 0.00 55 1014.6
20260501202016 7 269 12.9 16.1 0.00 0.00 0.00 54 1014.7
20260501201514 7 299 6.4 11.3 0.00 0.00 0.00 53 1014.6
20260501201010 7 312 6.4 6.4 0.00 0.00 0.00 55 1014.5
20260501200507 7 336 4.8 4.8 0.00 0.00 0.00 55 1014.5
20260501200005 7 345 1.6 9.7 0.00 0.00 0.00 55 1014.6
20260501195502 7 287 8.0 14.5 0.00 0.00 0.00 55 1014.8
20260501194957 8 16 8.0 17.7 0.00 0.00 0.00 55 1014.4
20260501194453 8 5 3.2 11.3 0.00 0.00 0.00 54 1014.5
20260501193949 8 334 3.2 4.8 0.00 0.00 0.00 54 1014.4
20260501193447 8 335 8.0 9.7 0.00 0.00 0.00 54 1014.3
20260501192944 8 326 6.4 12.9 0.00 0.00 0.00 54 1014.4
20260501192442 8 359 9.7 16.1 0.00 0.00 0.00 54 1014.3
20260501191939 8 322 11.3 14.5 0.00 0.00 0.00 54 1014.3
20260501191436 7 1 4.8 9.7 0.00 0.00 0.00 55 1014.3
20260501190933 7 325 6.4 9.7 0.00 0.00 0.00 54 1014.3
20260501190428 8 316 14.5 16.1 0.00 0.00 0.00 53 1014.3
20260501185923 8 291 9.7 12.9 0.00 0.00 0.00 54 1014.2
20260501185420 8 310 6.4 12.9 0.00 0.00 0.00 52 1014.1
20260501184916 8 317 6.4 11.3 0.00 0.00 0.00 51 1014.2
20260501184412 8 47 8.0 12.9 0.00 0.00 0.00 51 1014.0
20260501183907 8 323 1.6 6.4 0.00 0.00 0.00 55 1013.8
20260501183405 8 320 8.0 14.5 0.00 0.00 0.00 52 1014.2
20260501182901 8 334 3.2 16.1 0.00 0.00 0.00 53 1014.1
20260501182358 8 353 9.7 14.5 0.00 0.00 0.00 52 1014.1
20260501181855 8 351 1.6 6.4 0.00 0.00 0.00 50 1014.1
20260501181352 8 288 6.4 11.3 0.00 0.00 0.00 50 1014.0
20260501180849 8 277 12.9 14.5 0.00 0.00 0.00 50 1014.0
20260501180345 8 317 4.8 14.5 0.00 0.00 0.00 52 1013.9